Weather History for Ft Lauderdale, FL

Change the Weather History Date:

Monday, March 31, 2014

  Actual Average Record
Temperature  
Mean Temperature 70 °F 74 °F  
Max Temperature 79 °F 81 °F 92 °F (2000)
Min Temperature 60 °F 68 °F 46 °F (1950)
Degree Days  
Heating Degree Days 0 0  
Month to date heating degree days 1 7  
Since 1 July heating degree days 81 111  
Cooling Degree Days 5 10  
Month to date cooling degree days 272 254  
Year to date cooling degree days 660 610  
Growing Degree Days 19 (Base 50)    
Moisture  
Dew Point 60 °F    
Average Humidity 69    
Maximum Humidity 84    
Minimum Humidity 54    
Precipitation  
Precipitation 0.00 in 0.14 in 1.70 in (1937)
Month to date precipitation 2.66 3.36  
Year to date precipitation 8.17 9.95  
Snow  
Snow 0.00 in - - ()
Month to date snowfall 0.0  
Since 1 July snowfall 0.0  
Snow Depth 0.00 in    
Sea Level Pressure  
Sea Level Pressure 30.10 in    
Wind  
Wind Speed 7 mph (NNE)    
Max Wind Speed 16 mph    
Max Gust Speed 21 mph    
Visibility 10 miles    
Events      
T = Trace of Precipitation, MM = Missing Value Source: NWS Daily Summary

Daily Weather History Graph

Daily Weather History Graph

Search for Another Location

Airport:

Trip Planner

Search our weather history database for the weather conditions in past years. The results will help you decide how hot, cold, wet, or windy it might be!

Date:

Astronomy

Mar. 31, 2014 Rise Set
Actual Time 7:12 AM EDT 7:37 PM EDT
Civil Twilight 6:49 AM EDT 8:00 PM EDT
Nautical Twilight 6:22 AM EDT 8:27 PM EDT
Astronomical Twilight 5:55 AM EDT 8:54 PM EDT
Moon 7:41 AM EDT (3/31) 8:45 PM EDT (3/31)
Length of Visible Light 13h 10m
Length of Day
12h 24m
New Moon, 1% of the Moon is Illuminated
Mar 31
New Moon
Apr 7
First Quarter
Apr 15
Full
Apr 22
Last Quarter
Apr 29
New

Hourly Weather History & Observations

Time (EDT) Temp. Dew Point Humidity Pressure Visibility Wind Dir Wind Speed Gust Speed Precip Events Conditions
12:53 AM 64.9 °F 53.1 °F 65% 30.08 in 10.0 mi NW 3.5 mph - N/A   Scattered Clouds
1:53 AM 64.0 °F 54.0 °F 70% 30.09 in 10.0 mi WNW 4.6 mph - N/A   Scattered Clouds
2:53 AM 62.1 °F 55.9 °F 80% 30.07 in 10.0 mi NW 4.6 mph - N/A   Scattered Clouds
3:53 AM 61.0 °F 55.9 °F 83% 30.06 in 10.0 mi NW 6.9 mph - N/A   Scattered Clouds
4:53 AM 61.0 °F 55.0 °F 81% 30.05 in 10.0 mi NW 8.1 mph - N/A   Scattered Clouds
5:53 AM 61.0 °F 54.0 °F 78% 30.06 in 10.0 mi NW 5.8 mph - N/A   Scattered Clouds
6:53 AM 60.1 °F 54.0 °F 80% 30.07 in 10.0 mi NNW 9.2 mph - N/A   Scattered Clouds
7:53 AM 61.0 °F 54.0 °F 78% 30.10 in 10.0 mi NNW 8.1 mph - N/A   Mostly Cloudy
8:53 AM 66.0 °F 54.0 °F 65% 30.12 in 10.0 mi NNW 5.8 mph - N/A   Mostly Cloudy
9:53 AM 71.1 °F 55.0 °F 57% 30.12 in 10.0 mi North 8.1 mph - N/A   Scattered Clouds
10:53 AM 75.0 °F 57.0 °F 53% 30.13 in 10.0 mi Variable 5.8 mph - N/A   Mostly Cloudy
11:53 AM 75.9 °F 63.0 °F 64% 30.13 in 10.0 mi ENE 8.1 mph 17.3 mph N/A   Mostly Cloudy
12:53 PM 77.0 °F 64.0 °F 64% 30.12 in 10.0 mi NE 11.5 mph - N/A   Mostly Cloudy
1:53 PM 77.0 °F 64.9 °F 66% 30.11 in 10.0 mi ENE 9.2 mph - N/A   Overcast
2:53 PM 78.1 °F 64.9 °F 64% 30.10 in 10.0 mi ENE 9.2 mph - N/A   Overcast
3:53 PM 78.1 °F 64.9 °F 64% 30.09 in 10.0 mi East 10.4 mph - N/A   Overcast
4:53 PM 75.9 °F 64.9 °F 69% 30.07 in 10.0 mi NE 10.4 mph - N/A   Overcast
5:53 PM 75.0 °F 64.0 °F 69% 30.07 in 10.0 mi ENE 8.1 mph - N/A   Overcast
6:53 PM 75.0 °F 64.0 °F 69% 30.07 in 10.0 mi NE 6.9 mph - N/A   Overcast
7:53 PM 73.9 °F 63.0 °F 68% 30.09 in 10.0 mi NNE 3.5 mph - N/A   Overcast
8:53 PM 73.0 °F 62.1 °F 68% 30.11 in 10.0 mi Calm Calm - N/A   Mostly Cloudy
9:53 PM 72.0 °F 62.1 °F 71% 30.13 in 10.0 mi NE 3.5 mph - N/A   Mostly Cloudy
10:53 PM 72.0 °F 63.0 °F 73% 30.14 in 10.0 mi NE 3.5 mph - N/A   Overcast
11:53 PM 71.1 °F 62.1 °F 73% 30.14 in 10.0 mi ENE 5.8 mph - N/A   Mostly Cloudy